Powrót do katalogu

OPS 2644

AktywnyMilitariaPO
NORAD 3673·PAYLOAD·🇺🇸 United States

Wystrzelony Feb 5, 1969 z Vandenberg Space Force Base

Loading…

Następne Przeloty (najbliższe 24 godziny)

TLE

ŚwieżeSource: Space-Track

Epoka: Sep 14, 2026, 08:47 UTC

1 03673U 69010B   26257.36663583  .00000111  00000-0  57311-3 0  9990
2 03673  80.3898  96.3807 0024992 260.1233 213.9941 12.63666755654723

Śledź OPS 2644 w czasie rzeczywistym z AllMySat

Download on the App Store